Location: São Paulo
(23.5507°S, 46.6334°W)
Time: 14:23:57
(UTC-03:00)

Tiros 1 - Pass Details

Date: 18 February 2026
Orbit: 618 x 649 km, 48.4° (Epoch: 11 March)

Event Time Altitude Azimuth Distance (km) Brightness Sun altitude
Rises 18:59:51 0° 308° (NW) 2,900 11.1 -4.3°
Reaches altitude 10° 19:02:10 10° 305° (NW) 2,003 10.3 -4.8°
Maximum altitude 19:06:44 61° 224° (SW) 724 7.8 -5.8°
Drops below altitude 10° 19:11:23 10° 143° (SE) 2,042 9.5 -6.9°
Sets 19:13:47 0° 139° (SE) 2,961 10.3 -7.4°
